Weather History for KISN - September, 2011

Change the Weather History Date:

Wednesday, September 21, 2011

  Actual Average Record
Temperature  
Mean Temperature 50 °F 54 °F  
Max Temperature 61 °F 69 °F 91 °F (1938)
Min Temperature 39 °F 40 °F 18 °F (1995)
Degree Days  
Heating Degree Days 15 11  
Month to date heating degree days 141 154  
Since 1 July heating degree days 150 225  
Cooling Degree Days 0 0  
Month to date cooling degree days 18 24  
Year to date cooling degree days 434 453  
Moisture  
Dew Point 42 °F    
Average Humidity 71    
Maximum Humidity 96    
Minimum Humidity 46    
Precipitation  
Precipitation 0.00 in 0.03 in 0.85 in (1969)
Month to date precipitation 0.86 0.74  
Year to date precipitation 17.81 11.86  
Snow  
Snow 0.00 in 0.00 in 0.00 in (2002)
Month to date snowfall 0.0 0.0  
Since 1 July snowfall T 0.0  
Since 1 September snowfall 0.0 0.0  
Snow Depth 0.00 in    
Sea Level Pressure  
Sea Level Pressure 30.23 in    
Wind  
Wind Speed 3 mph (North)    
Max Wind Speed 10 mph    
Max Gust Speed 14 mph    
Visibility 10 miles    
Events      
T = Trace of Precipitation, MM = Missing Value Source: NWS Daily Summary

Daily Weather History Graph

Daily Weather History Graph

Search for Another Location

Airport or City:

Trip Planner

Search our weather history database for the weather conditions in past years. The results will help you decide how hot, cold, wet, or windy it might be!

Date:

Astronomy

Sep. 21, 2011 Rise Set
Actual Time 7:39 AM CDT 7:54 PM CDT
Civil Twilight 7:08 AM CDT 8:25 PM CDT
Nautical Twilight 6:31 AM CDT 9:02 PM CDT
Astronomical Twilight 5:53 AM CDT 9:40 PM CDT
Moon 12:34 AM CDT (9/21) 4:31 PM CDT (9/21)
Length of Visible Light 13h 17m
Length of Day
12h 15m
Last Quarter, 38% of the Moon is Illuminated
Sep 21
Last Quarter
Sep 27
New
Oct 3
First Quarter
Oct 11
Full
Oct 19
Last Quarter

Hourly Weather History & Observations

Time (CDT) Temp. Windchill Dew Point Humidity Pressure Visibility Wind Dir Wind Speed Gust Speed Precip Events Conditions
12:52 AM 48.0 °F - 44.1 °F 86% 30.18 in 10.0 mi NNW 5.8 mph - N/A   Clear
1:52 AM 46.9 °F - 43.0 °F 86% 30.18 in 10.0 mi NW 6.9 mph - N/A   Clear
2:52 AM 48.0 °F - 43.0 °F 83% 30.17 in 10.0 mi NW 8.1 mph - N/A   Clear
3:52 AM 46.9 °F - 43.0 °F 86% 30.19 in 10.0 mi ENE 4.6 mph - N/A   Clear
4:52 AM 45.0 °F 43.5 °F 42.1 °F 90% 30.20 in 10.0 mi ENE 3.5 mph - N/A   Clear
5:52 AM 43.0 °F 41.3 °F 41.0 °F 93% 30.22 in 10.0 mi North 3.5 mph - N/A   Scattered Clouds
6:08 AM 44.6 °F 41.4 °F 42.8 °F 93% 30.20 in 10.0 mi North 5.8 mph - N/A   Mostly Cloudy
6:41 AM 44.6 °F 43.1 °F 42.8 °F 93% 30.21 in 10.0 mi North 3.5 mph - N/A   Scattered Clouds
6:45 AM 44.6 °F - 42.8 °F 93% 30.21 in 10.0 mi Calm Calm - N/A   Mostly Cloudy
6:52 AM 45.0 °F - 42.1 °F 90% 30.24 in 10.0 mi Calm Calm - N/A   Mostly Cloudy
7:29 AM 44.6 °F 41.4 °F 42.8 °F 93% 30.22 in 10.0 mi North 5.8 mph - N/A   Mostly Cloudy
7:52 AM 46.0 °F 43.9 °F 44.1 °F 93% 30.25 in 10.0 mi North 4.6 mph - N/A   Mostly Cloudy
8:52 AM 48.0 °F - 45.0 °F 89% 30.25 in 10.0 mi North 3.5 mph - N/A   Overcast
9:47 AM 48.2 °F - 44.6 °F 87% 30.24 in 10.0 mi North 4.6 mph - N/A   Overcast
9:52 AM 48.9 °F - 44.1 °F 83% 30.27 in 10.0 mi North 3.5 mph - N/A   Overcast
10:52 AM 51.1 °F - 44.1 °F 77% 30.28 in 10.0 mi North 4.6 mph - N/A   Mostly Cloudy
10:57 AM 51.8 °F - 42.8 °F 71% 30.26 in 10.0 mi Calm Calm - N/A   Overcast
11:52 AM 52.0 °F - 42.1 °F 69% 30.30 in 10.0 mi North 6.9 mph - N/A   Overcast
12:52 PM 53.1 °F - 42.1 °F 66% 30.30 in 10.0 mi North 8.1 mph - N/A   Overcast
1:52 PM 54.0 °F - 42.1 °F 64% 30.29 in 10.0 mi North 4.6 mph - N/A   Overcast
2:46 PM 55.4 °F - 42.8 °F 63% 30.25 in 10.0 mi Calm Calm - N/A   Scattered Clouds
2:52 PM 57.2 °F - 42.8 °F 59% 30.25 in 10.0 mi Calm Calm - N/A   Mostly Cloudy
3:19 PM 55.4 °F - 41.0 °F 58% 30.24 in 10.0 mi Calm Calm - N/A   Scattered Clouds
3:52 PM 59.0 °F - 41.0 °F 51% 30.24 in 10.0 mi Calm Calm - N/A   Scattered Clouds
4:52 PM 60.1 °F - 41.0 °F 49% 30.25 in 10.0 mi NNE 4.6 mph - N/A   Clear
5:52 PM 60.1 °F - 39.9 °F 47% 30.24 in 10.0 mi Calm Calm - N/A   Clear
6:52 PM 59.0 °F - 39.9 °F 49% 30.23 in 10.0 mi Calm Calm - N/A   Clear
7:52 PM 53.6 °F - 39.2 °F 58% 30.19 in 10.0 mi Calm Calm - N/A   Clear
8:52 PM 44.6 °F 43.1 °F 39.2 °F 81% 30.18 in 9.0 mi SW 3.5 mph - N/A   Clear
9:52 PM 45.0 °F - 41.0 °F 86% 30.22 in 10.0 mi Calm Calm - N/A   Clear
10:52 PM 41.0 °F - 39.0 °F 93% 30.22 in 10.0 mi Calm Calm - N/A   Clear
11:52 PM 41.0 °F 39.0 °F 39.0 °F 93% 30.21 in 10.0 mi NE 3.5 mph - N/A   Clear